Wetbulb
77.74 77.92 77.73 77.82 78.14 78.72 78.17 78.54 78.43 78.11 78.11 77.61 77.48 77.15 73.26 76.06 75.59 75.71 75.74 75.08 74.53 74.07 72.96 72.74 73.11 73.99 73.78 73.57 73.32 72.86 72.47 72.75 72.61 72.41 72.79 73.68 74.10 73.99 73.16 72.56 74.47 75.23 75.65
78.09 77.07 76.62 77.35 78.45 78.43 78.32 78.30 78.00 77.94 78.08 77.84 77.08 76.97 76.68 76.39 75.47 74.74 75.25 75.34 73.97 73.85 72.52 71.87 71.38 70.92 70.46 69.92 69.35 69.32 70.33 71.02 71.09 71.07 71.53 72.02 72.51 73.07 73.05 72.64 72.72 73.02 74.32
78.84 76.93 76.96 78.22 78.99 79.37 78.83 78.52 78.09 78.43 77.95 77.50 76.32 76.77 76.96 76.33 75.35 75.25 75.18 74.93 74.02 72.60 72.32 71.57 71.21 70.70 69.84 69.10 68.46 68.37 68.12 67.91 68.76 69.90 70.12 69.88 69.74 70.23 71.82 72.27 70.49 69.92 73.34
78.99 77.40 77.88 78.31 79.51 79.12 78.49 77.85 77.31 77.44 77.40 77.21 76.86 76.46 76.49 76.18 75.76 75.68 74.63 73.31 73.69 72.20 72.15 71.96 71.40 70.11 69.35 68.31 67.81 67.89 67.38 67.17 66.92 66.76 67.59 68.97 69.73 69.41 70.42 71.53 70.17 70.33 73.19
78.08 77.78 78.70 79.31 79.51 78.46 77.82 77.25 76.24 75.94 75.76 75.46 75.44 75.85 76.02 75.82 75.58 74.98 74.78 74.21 73.09 71.83 72.81 72.39 71.06 70.10 69.54 68.84 68.48 67.84 67.47 66.99 66.57 66.52 66.23 66.45 67.69 68.64 69.49 70.62 71.14 71.58 72.14
77.66 77.71 79.68 78.98 79.14 77.82 77.03 77.65 76.40 73.73 72.18 71.67 72.97 74.09 75.60 75.70 75.61 75.17 74.73 73.84 72.54 71.92 72.07 72.24 71.62 70.46 69.91 68.73 68.02 67.54 67.02 66.78 66.31 66.17 66.06 65.85 65.80 66.89 68.13 69.44 69.93 70.95 71.35
77.92 78.79 79.19 79.61 79.06 77.54 77.52 76.96 75.89 75.10 71.72 70.06 70.72 70.76 73.69 74.47 74.44 74.55 74.48 73.83 73.02 72.47 71.25 70.50 71.24 70.22 68.81 68.04 67.31 66.96 66.62 66.04 66.02 65.94 65.78 65.69 66.03 64.94 67.01 68.44 69.85 70.35 70.84
76.84 78.60 79.22 79.12 79.20 78.13 77.99 77.31 76.23 73.13 71.73 69.07 67.52 68.58 65.36 69.58 71.86 72.68 73.97 73.31 73.25 71.91 70.63 70.70 71.28 70.31 69.78 68.66 66.58 66.28 66.04 65.61 65.54 65.17 65.17 64.86 65.08 65.56 65.75 67.45 68.83 69.49 70.33
77.54 77.18 78.93 79.82 79.64 79.00 76.62 77.15 75.76 73.48 69.13 69.87 68.09 66.94 62.25 60.54 63.74 69.25 69.46 71.63 71.45 70.22 70.25 70.28 70.16 69.32 68.71 66.39 65.91 64.99 64.31 64.87 64.09 64.64 64.68 64.37 64.61 65.26 65.57 66.87 67.93 68.87 69.94
77.18 77.89 79.38 79.27 80.04 79.44 78.52 77.58 75.42 72.02 70.73 66.21 68.16 65.55 65.43 64.85 59.80 57.74 64.71 65.75 68.75 66.20 67.83 68.48 68.61 65.73 65.70 64.87 64.81 64.52 64.47 62.76 63.20 63.39 63.73 63.97 65.07 65.38 65.57 66.09 67.13 67.98 69.43
77.46 77.32 79.12 79.53 79.20 79.62 79.57 78.88 76.89 71.58 69.30 67.40 65.82 65.05 65.38 63.60 63.22 59.97 56.35 60.03 64.07 65.84 67.08 66.22 64.90 64.07 63.00 62.83 63.00 64.10 63.40 62.40 61.77 61.91 62.58 64.24 64.70 65.30 65.47 66.29 67.17 68.15 69.15
77.10 77.61 77.66 79.10 79.37 79.50 79.23 79.30 76.55 71.27 69.11 68.86 68.27 67.06 63.86 61.77 60.83 60.63 59.13 60.27 60.56 64.21 65.26 63.44 62.72 62.71 63.14 64.65 64.33 63.61 63.00 62.29 61.42 61.61 62.49 63.53 64.57 65.35 64.85 65.69 66.67 68.15 69.51
75.28 76.50 77.83 78.08 78.65 79.68 79.53 79.38 77.28 73.94 70.29 69.51 68.53 66.30 66.05 65.46 64.23 63.15 62.03 60.91 60.24 63.58 64.69 62.65 62.39 63.93 63.43 62.83 64.11 62.68 63.69 62.65 61.59 61.17 61.65 62.82 64.05 64.91 65.51 65.33 65.98 67.06 68.61
74.72 77.23 76.75 78.91 78.67 79.59 79.72 78.95 77.65 74.91 71.79 69.35 66.86 66.83 65.82 66.43 65.81 65.02 63.60 61.41 57.94 61.64 64.27 60.91 62.95 62.18 62.89 62.71 62.41 61.58 61.82 61.49 61.60 61.25 61.26 62.11 63.03 63.99 64.67 64.29 64.29 64.30 65.44
74.50 75.71 77.14 78.47 78.61 79.65 79.61 79.28 77.57 75.87 72.73 69.86 67.24 66.00 66.38 66.99 67.12 66.27 65.55 64.18 60.84 56.89 60.71 61.15 60.03 61.92 61.65 61.28 61.06 62.88 62.63 60.42 60.93 61.39 60.74 60.85 61.93 62.69 63.82 63.88 63.51 63.14 63.65
76.34 75.63 75.53 78.16 78.29 78.64 79.34 79.24 77.77 76.31 73.51 70.46 66.93 65.83 67.04 67.21 66.92 66.51 65.85 65.24 64.46 62.48 60.28 62.30 60.91 59.43 61.66 60.98 60.49 62.71 61.65 59.51 59.13 60.29 59.65 60.74 61.12 61.40 62.67 63.09 63.60 63.36 63.36
76.51 76.16 75.79 75.42 77.94 77.94 78.80 79.08 78.43 76.62 74.24 71.06 67.51 65.93 66.59 66.41 65.74 66.07 65.21 64.47 64.62 64.64 62.41 58.51 60.00 60.89 59.97 59.58 60.41 60.96 61.43 61.78 61.70 58.77 59.87 60.39 60.25 60.94 61.32 61.65 61.92 62.25 62.89
76.32 76.47 76.70 75.92 75.74 77.29 78.56 78.19 77.72 76.05 74.01 71.79 68.70 66.86 66.50 65.83 65.52 65.40 63.79 63.79 64.79 65.23 64.09 57.94 58.11 58.84 59.82 59.37 59.86 59.93 59.97 60.61 60.52 59.76 59.49 59.78 59.94 60.40 60.74 61.00 60.84 60.99 61.23
77.06 77.21 76.85 76.05 76.44 76.99 77.63 78.22 77.84 76.42 74.06 73.23 69.93 67.70 66.92 66.27 64.48 63.31 63.61 63.40 63.55 63.31 63.99 61.33 56.75 59.05 59.62 61.27 59.80 60.23 60.03 60.37 59.17 58.89 58.77 58.94 59.77 59.56 59.63 59.52 59.66 59.35 58.85
77.58 77.54 77.31 76.55 76.95 77.48 77.56 77.70 77.67 76.18 74.19 73.14 69.60 67.92 66.73 65.93 63.21 63.30 62.98 63.08 63.09 62.09 61.86 60.48 58.86 59.12 58.24 60.44 60.69 58.02 58.75 59.90 57.79 56.18 57.63 58.06 58.91 58.89 58.84 59.54 60.43 61.11 58.73
78.24 78.09 77.68 77.26 76.70 76.26 75.98 76.87 77.04 76.58 74.01 72.46 67.71 67.19 67.07 63.77 61.43 62.42 63.44 63.16 62.65 61.77 60.43 59.55 58.35 58.23 57.96 59.74 58.48 58.67 58.39 59.37 57.60 55.43 54.53 55.87 56.70 56.84 57.78 60.14 63.20 63.88 59.66
78.39 78.39 77.70 77.59 77.00 76.23 68.66 67.39 73.20 75.85 74.08 72.01 67.90 66.23 64.84 62.60 61.86 60.24 59.63 58.89 61.21 61.28 60.03 59.66 58.69 57.21 58.35 59.85 60.11 58.35 57.59 56.14 53.08 56.76 53.70 54.57 56.76 56.66 57.82 59.40 61.76 61.79 58.94
77.97 77.83 77.99 77.75 77.27 76.92 67.21 64.36 67.21 75.67 73.80 70.78 68.27 65.61 63.53 62.64 62.71 61.65 59.35 58.98 58.16 57.28 58.88 61.15 58.77 58.62 59.36 60.62 61.05 59.53 58.11 56.40 53.33 54.51 54.20 53.66 56.18 56.24 57.78 58.81 60.53 59.08 58.09
77.37 77.82 76.95 74.35 72.58 72.46 64.53 63.42 65.80 75.67 73.33 70.87 68.41 66.20 63.68 62.85 62.87 61.89 61.18 60.22 60.15 60.55 60.53 60.48 60.72 61.08 61.45 61.42 61.14 59.82 59.06 60.09 58.55 55.72 55.01 53.98 55.16 55.91 57.82 58.65 59.16 59.64 58.93
74.08 73.00 72.46 71.57 71.54 70.65 62.19 60.38 66.17 73.28 70.70 68.91 67.57 65.87 64.36 63.16 58.04 57.88 61.23 60.23 59.87 59.61 57.86 57.10 57.45 56.68 55.71 56.09 58.16 60.35 58.01 59.65 56.61 54.71 54.85 54.39 54.51 54.14 57.30 57.44 58.85 57.34 56.38
73.21 72.13 71.77 70.21 64.82 69.58 63.10 61.11 64.23 72.91 68.90 67.26 66.51 64.73 60.55 62.21 55.52 56.05 62.05 60.97 59.34 59.36 59.57 59.50 58.99 57.88 58.62 56.74 55.75 59.82 59.65 57.62 58.59 55.43 58.65 55.30 56.28 55.47 55.64 57.66 57.96 60.27 60.42
MSLP
1016.28 1016.17 1015.88 1015.80 1015.64 1015.32 1015.04 1014.94 1014.78 1014.70 1014.70 1014.67 1014.76 1014.86 1015.29 1014.91 1014.92 1015.16 1015.33 1016.09 1016.18 1016.32 1016.51 1016.58 1016.60 1016.67 1016.73 1016.76 1016.80 1016.88 1016.99 1017.14 1017.17 1017.07 1016.99 1017.02 1017.25 1017.70 1018.28 1018.63 1019.20 1019.16 1019.57
1016.18 1015.90 1015.85 1015.64 1015.43 1015.22 1015.17 1014.98 1014.80 1014.78 1014.59 1014.57 1014.80 1014.76 1014.80 1014.87 1015.06 1015.46 1015.24 1015.75 1016.46 1016.46 1016.69 1016.78 1016.91 1016.99 1017.00 1016.97 1017.00 1017.11 1017.14 1017.21 1017.25 1017.27 1017.18 1017.18 1017.10 1017.35 1017.89 1018.06 1018.62 1018.86 1019.63
1016.15 1016.07 1015.86 1015.73 1015.31 1015.11 1014.98 1014.77 1014.70 1014.62 1014.56 1014.50 1014.70 1014.66 1014.74 1015.01 1015.13 1015.46 1015.43 1015.56 1016.25 1016.72 1016.67 1016.90 1017.16 1017.21 1017.30 1017.30 1017.37 1017.45 1017.54 1017.52 1017.46 1017.45 1017.42 1017.44 1017.46 1017.50 1017.46 1018.05 1018.11 1018.96 1019.64
1016.09 1016.14 1015.85 1015.71 1015.45 1015.13 1014.91 1014.80 1014.84 1014.71 1014.51 1014.52 1014.58 1014.68 1014.72 1014.90 1015.10 1015.43 1015.86 1015.92 1015.87 1016.10 1016.74 1016.99 1017.17 1017.42 1017.42 1017.58 1017.76 1017.76 1017.80 1017.85 1017.81 1017.72 1017.62 1017.60 1017.57 1017.58 1017.61 1018.06 1018.72 1019.40 1019.44
1015.95 1016.04 1015.76 1015.60 1015.51 1015.05 1015.03 1014.94 1015.00 1015.03 1014.77 1014.70 1014.56 1014.58 1014.75 1014.91 1015.11 1015.10 1015.52 1015.69 1016.06 1016.39 1016.30 1016.86 1017.52 1017.64 1017.36 1017.66 1017.80 1017.97 1018.02 1018.02 1018.06 1017.96 1017.80 1017.72 1017.68 1017.80 1017.83 1018.00 1018.46 1018.62 1018.73
1015.89 1015.95 1015.64 1015.55 1015.38 1015.20 1015.14 1015.08 1015.24 1015.31 1015.22 1015.12 1014.66 1014.33 1014.70 1014.89 1014.99 1015.14 1015.34 1015.83 1016.15 1016.02 1016.40 1016.76 1017.14 1016.64 1017.26 1017.74 1017.92 1018.05 1018.06 1018.11 1018.00 1018.06 1018.09 1017.98 1017.74 1017.80 1017.99 1017.99 1018.04 1017.85 1018.69
1015.77 1015.80 1015.41 1015.45 1015.34 1015.41 1015.51 1015.48 1015.26 1015.34 1015.32 1015.35 1014.84 1014.39 1014.44 1014.68 1014.83 1014.90 1015.03 1015.18 1015.29 1015.76 1016.32 1016.72 1016.50 1016.86 1017.47 1017.57 1017.93 1017.95 1017.87 1018.02 1017.93 1018.06 1018.01 1018.03 1017.96 1017.69 1017.98 1018.07 1017.95 1017.98 1018.55
1015.74 1015.64 1015.58 1015.40 1015.49 1015.41 1015.57 1015.54 1015.58 1015.37 1015.50 1015.75 1015.14 1014.69 1014.03 1014.37 1014.79 1014.82 1015.00 1015.16 1015.24 1015.48 1016.23 1016.42 1016.50 1016.95 1017.07 1017.13 1017.76 1018.10 1017.92 1017.89 1017.89 1018.13 1017.80 1017.83 1017.94 1017.83 1017.78 1018.07 1018.14 1018.09 1018.56
1015.55 1015.51 1015.41 1015.35 1015.44 1015.43 1015.35 1015.57 1015.66 1015.67 1015.38 1015.69 1015.90 1015.48 1014.79 1014.58 1014.81 1014.90 1015.27 1015.29 1015.49 1015.72 1015.91 1016.28 1016.39 1017.15 1017.27 1017.82 1018.25 1018.34 1018.04 1018.25 1018.03 1018.03 1017.99 1017.61 1017.68 1017.76 1017.63 1017.74 1018.05 1018.32 1018.47
1015.25 1015.21 1015.25 1015.33 1015.35 1015.35 1015.53 1015.71 1015.91 1015.93 1015.82 1015.63 1015.76 1015.96 1016.23 1016.06 1015.32 1014.86 1015.40 1015.73 1015.89 1016.04 1016.10 1015.83 1016.42 1017.20 1017.55 1018.10 1017.96 1018.26 1017.89 1018.14 1018.22 1018.26 1018.14 1017.79 1017.58 1017.34 1017.34 1017.46 1017.52 1017.78 1018.16
1015.23 1015.14 1015.02 1015.09 1015.23 1015.14 1015.39 1015.56 1015.87 1016.11 1015.96 1015.81 1015.76 1015.80 1016.10 1015.99 1016.12 1015.74 1015.08 1015.27 1015.77 1016.18 1016.19 1016.50 1017.18 1017.58 1018.12 1018.16 1018.36 1018.22 1018.47 1018.55 1018.76 1018.78 1018.17 1017.82 1017.45 1017.09 1016.95 1017.07 1017.14 1017.25 1017.46
1015.21 1015.20 1015.05 1014.93 1014.95 1015.14 1015.23 1015.33 1015.70 1016.01 1016.07 1016.12 1016.05 1015.97 1015.91 1015.84 1015.82 1015.86 1015.58 1015.42 1015.75 1016.29 1016.59 1017.35 1017.77 1018.11 1018.37 1018.41 1018.25 1018.44 1018.56 1018.68 1018.70 1018.27 1017.80 1017.63 1017.34 1017.08 1016.75 1016.76 1016.95 1017.03 1017.10
1015.09 1015.15 1015.18 1015.08 1014.98 1015.15 1015.08 1015.19 1015.60 1015.88 1015.95 1016.04 1016.29 1016.11 1016.03 1016.04 1016.28 1016.12 1015.89 1015.57 1015.66 1016.24 1016.51 1017.65 1017.98 1018.07 1018.27 1018.48 1018.41 1018.41 1018.58 1018.53 1018.37 1018.07 1017.86 1017.61 1017.46 1017.14 1016.78 1016.82 1016.95 1016.98 1016.86
1015.20 1015.21 1015.03 1014.72 1014.78 1014.81 1014.98 1015.11 1015.52 1015.80 1016.05 1016.24 1016.40 1016.38 1016.04 1016.19 1016.25 1016.22 1016.03 1015.68 1015.28 1015.81 1016.34 1017.43 1018.27 1018.51 1018.55 1018.70 1018.69 1018.44 1017.95 1018.27 1018.28 1018.07 1017.90 1017.74 1017.49 1017.13 1016.90 1017.00 1017.01 1017.11 1017.02
1015.18 1015.12 1014.92 1014.75 1014.71 1014.81 1015.08 1015.37 1015.64 1015.88 1016.17 1016.43 1016.47 1016.31 1016.14 1016.17 1016.30 1016.26 1016.28 1016.00 1015.74 1015.30 1015.79 1017.49 1018.18 1018.70 1018.86 1018.75 1018.68 1018.43 1018.10 1018.31 1018.01 1017.98 1017.83 1017.69 1017.44 1017.19 1017.00 1016.99 1017.02 1017.12 1017.21
1015.15 1015.04 1014.97 1014.70 1014.70 1014.76 1014.84 1015.19 1015.54 1015.79 1016.07 1016.35 1016.51 1016.42 1016.33 1016.22 1016.30 1016.33 1016.22 1016.07 1015.95 1015.73 1015.79 1017.31 1018.16 1018.77 1018.87 1018.85 1018.70 1018.25 1018.06 1018.25 1018.21 1018.07 1017.89 1017.70 1017.42 1017.16 1016.97 1016.90 1016.89 1016.99 1017.08
1014.81 1014.80 1014.79 1014.74 1014.64 1014.54 1014.57 1014.85 1015.09 1015.41 1015.85 1016.28 1016.55 1016.26 1016.18 1016.46 1016.32 1016.43 1016.39 1016.19 1016.03 1015.99 1015.88 1018.02 1018.48 1018.96 1019.09 1018.99 1018.64 1018.47 1018.09 1017.68 1017.47 1018.00 1017.79 1017.62 1017.33 1017.04 1016.85 1016.70 1016.70 1016.80 1016.95
1014.29 1014.37 1014.39 1014.27 1014.24 1014.18 1014.27 1014.49 1014.72 1015.12 1015.69 1015.94 1016.12 1016.21 1016.24 1016.27 1016.41 1016.63 1016.35 1016.47 1016.30 1016.33 1016.12 1017.46 1018.66 1018.77 1018.85 1019.01 1018.82 1018.51 1018.07 1017.70 1017.74 1017.93 1017.86 1017.56 1017.27 1017.01 1016.69 1016.44 1016.38 1016.39 1016.73
1013.58 1013.52 1013.62 1013.70 1013.65 1013.73 1013.92 1014.24 1014.46 1014.69 1015.43 1015.55 1015.89 1015.97 1016.20 1016.37 1016.26 1016.43 1016.61 1016.32 1016.35 1016.44 1016.44 1016.82 1018.27 1018.61 1018.85 1018.82 1018.73 1018.49 1018.21 1017.89 1018.06 1018.01 1017.75 1017.47 1017.20 1016.81 1016.33 1015.93 1015.68 1015.53 1015.91
1012.81 1012.86 1012.65 1012.79 1013.07 1013.31 1013.50 1013.76 1014.13 1014.48 1014.78 1015.11 1015.68 1015.86 1016.19 1016.17 1016.36 1016.37 1016.73 1016.77 1016.76 1016.76 1016.96 1017.07 1017.72 1018.01 1018.53 1018.82 1018.59 1018.28 1017.67 1017.61 1017.99 1018.09 1017.75 1017.37 1016.98 1016.41 1015.72 1015.00 1014.29 1013.97 1014.53
1011.90 1011.97 1011.98 1012.17 1012.55 1012.64 1012.87 1013.07 1013.29 1013.99 1014.38 1014.64 1015.51 1015.61 1015.90 1016.39 1016.51 1016.44 1016.59 1017.08 1017.05 1017.01 1016.97 1017.18 1017.52 1017.87 1018.27 1018.23 1018.08 1018.16 1017.67 1017.50 1018.27 1018.55 1018.03 1017.22 1016.47 1015.69 1014.81 1013.61 1012.79 1012.71 1013.33
1011.50 1011.47 1011.52 1011.60 1012.00 1012.07 1011.95 1012.30 1012.68 1013.01 1014.19 1014.31 1015.20 1015.53 1015.86 1016.59 1016.75 1016.80 1017.07 1017.63 1017.55 1017.38 1017.40 1017.24 1017.34 1017.68 1018.23 1018.30 1018.25 1017.95 1017.81 1017.74 1018.55 1018.46 1018.34 1017.24 1016.36 1015.63 1014.46 1013.32 1012.58 1012.33 1013.12
1011.47 1011.20 1011.19 1011.39 1011.74 1011.99 1011.85 1012.06 1012.27 1012.53 1013.49 1013.87 1014.41 1015.06 1015.50 1016.28 1016.73 1017.06 1017.51 1017.79 1018.19 1018.09 1017.92 1017.72 1017.75 1017.83 1018.16 1018.40 1018.41 1018.29 1018.38 1018.47 1018.97 1019.13 1018.62 1017.59 1016.75 1015.92 1015.13 1014.01 1012.59 1012.78 1013.64
1011.03 1010.69 1010.81 1011.04 1011.74 1012.35 1012.24 1012.64 1012.44 1012.44 1013.24 1013.61 1014.01 1014.64 1015.10 1016.19 1016.65 1016.90 1017.24 1017.67 1018.04 1018.48 1018.33 1017.86 1018.11 1018.37 1018.37 1018.57 1018.70 1018.85 1018.94 1018.80 1018.81 1019.02 1018.94 1018.14 1017.35 1016.77 1016.14 1015.24 1014.40 1014.26 1014.82
1010.85 1010.99 1011.31 1010.82 1010.45 1010.78 1010.49 1011.77 1012.61 1011.93 1012.79 1013.10 1013.83 1014.25 1014.82 1015.75 1016.57 1016.82 1017.09 1017.52 1018.14 1018.65 1019.32 1019.06 1019.03 1019.24 1019.42 1019.30 1019.02 1018.65 1018.49 1018.05 1018.60 1019.12 1019.08 1018.86 1018.32 1017.80 1017.22 1016.71 1016.46 1016.15 1016.49
1010.47 1010.59 1010.81 1010.61 1010.77 1010.41 1008.63 1011.21 1013.39 1012.44 1012.19 1012.88 1013.71 1014.26 1014.90 1015.53 1016.33 1016.68 1016.94 1017.41 1017.52 1018.26 1018.84 1019.17 1019.23 1019.34 1019.48 1019.77 1019.68 1019.00 1018.58 1018.29 1018.49 1019.07 1019.26 1019.17 1018.75 1018.63 1018.18 1018.46 1017.99 1018.05 1018.32
Wind_Speed
3 4 3 4 3 2 3 3 2 4 2 2 3 3 4 5 5 3 3 6 8 9 9 9 10 11 13 14 12 10 8 8 8 5 6 10 13 15 18 12 16 15 16
3 4 4 4 3 3 3 3 3 3 3 2 2 4 5 5 5 3 3 5 6 9 8 7 9 11 12 12 12 11 9 8 8 8 7 6 5 9 14 23 13 7 11
3 4 4 4 3 2 3 3 4 3 3 2 4 4 4 5 5 6 4 2 7 7 8 8 8 9 9 9 11 13 12 12 10 10 7 5 4 5 7 18 14 13 12
2 3 4 4 2 2 3 3 3 3 3 3 3 4 4 5 6 6 4 3 4 5 7 8 11 9 10 9 10 11 11 10 10 9 7 7 6 2 3 15 21 23 17
2 3 3 3 2 3 4 3 3 4 3 3 4 4 4 5 6 5 6 6 4 4 5 9 7 6 10 10 9 8 9 9 9 7 6 6 5 4 1 8 15 16 12
4 3 2 3 3 4 4 4 3 3 4 4 5 3 4 4 5 5 6 5 6 8 6 5 3 7 9 9 9 8 9 9 9 8 7 7 5 4 2 4 11 13 11
3 3 2 2 3 4 5 5 4 4 3 5 3 3 3 4 6 5 6 7 7 6 4 3 4 3 6 11 9 9 10 8 9 9 8 7 7 4 3 2 9 15 15
3 3 3 3 4 3 3 5 6 4 2 5 4 2 3 2 1 4 4 5 7 4 4 3 5 5 5 4 7 8 11 10 10 9 9 9 8 6 4 4 6 11 14
4 3 3 1 2 3 5 5 6 6 5 3 6 4 3 4 6 1 3 3 3 3 2 4 5 7 6 5 5 8 10 11 8 10 9 9 8 7 4 7 7 9 14
5 4 4 3 2 2 3 3 3 3 3 4 1 2 3 3 4 4 2 3 2 3 5 5 4 6 5 5 5 7 7 2 7 8 10 8 9 9 7 7 9 10 12
3 5 6 5 4 2 1 2 2 3 3 2 3 2 1 1 1 3 4 2 2 4 5 5 6 5 5 5 3 7 6 3 2 5 7 10 9 8 6 7 10 11 13
2 4 5 5 4 3 4 2 3 3 2 2 2 2 2 3 4 3 4 4 4 3 5 5 6 4 2 1 1 6 6 5 4 8 11 12 11 10 4 2 4 9 15
3 4 5 5 5 5 4 3 3 2 1 2 3 3 2 2 2 2 3 4 4 1 3 6 4 4 4 3 3 6 10 9 10 10 10 10 11 10 8 4 5 7 4
4 4 7 6 6 6 5 3 2 0 1 1 2 1 2 2 1 1 3 4 4 1 1 5 3 4 2 2 4 6 3 7 8 7 7 10 11 9 5 4 6 6 7
5 6 7 5 5 6 5 4 3 3 2 1 1 2 2 1 0 0 1 2 3 4 1 3 3 3 3 3 5 3 5 7 7 8 9 10 11 11 7 5 3 3 5
7 6 7 6 6 7 7 6 4 4 4 2 1 2 3 1 1 1 1 2 2 2 1 2 4 4 4 3 3 2 4 6 4 9 9 10 10 10 9 8 7 6 5
9 8 8 8 8 8 8 7 6 5 5 3 3 4 2 2 2 2 2 2 1 2 0 3 2 4 4 3 1 4 4 4 3 7 11 11 10 10 10 11 11 9 8
10 10 9 9 9 9 9 9 7 6 6 5 5 5 2 2 2 2 2 3 2 1 1 8 3 2 3 2 3 4 5 5 6 10 12 12 11 12 11 11 12 13 11
12 11 10 10 10 9 8 8 7 7 6 7 6 5 3 2 3 3 4 4 3 4 2 6 5 3 3 2 1 3 4 5 6 13 12 13 13 13 14 15 16 17 14
12 12 12 11 10 9 8 8 8 8 7 7 6 5 4 3 4 4 4 4 4 4 4 5 6 5 3 0 2 4 3 4 4 7 10 10 14 17 17 18 18 20 20
13 13 13 11 12 10 9 11 11 9 8 8 6 6 5 5 4 5 3 3 3 3 3 4 5 5 3 1 3 3 4 3 6 5 6 6 7 7 7 10 6 8 19
13 12 12 11 11 10 11 13 11 10 8 9 8 7 7 10 8 11 11 7 4 3 4 3 4 6 4 2 1 4 4 4 2 3 5 6 7 8 9 9 6 10 22
12 11 9 7 9 10 11 11 13 8 9 10 11 10 9 7 9 11 13 12 10 8 6 4 6 5 5 3 1 2 5 6 2 3 3 5 7 9 9 10 11 17 23
10 7 4 6 5 4 10 8 10 10 8 10 11 12 10 11 9 11 10 9 9 7 6 5 6 5 6 4 3 4 4 2 4 2 5 5 6 7 9 11 24 24 24
6 3 4 5 6 4 7 2 11 11 10 11 11 12 13 12 13 12 11 11 9 8 7 10 11 9 9 6 5 2 3 2 5 4 6 4 5 4 9 11 13 29 25
7 5 5 2 2 5 14 7 10 6 10 9 10 11 10 13 16 12 11 10 10 9 8 8 9 9 7 6 1 5 3 4 3 3 8 4 5 4 5 8 11 11 13
Wind_Direction
336 335 338 318 303 303 302 317 335 351 310 271 213 185 166 184 157 166 145 135 114 95 87 78 73 71 69 68 65 66 70 66 54 27 264 251 234 221 195 242 228 200 193
320 331 335 326 304 304 347 322 350 332 337 272 209 216 204 194 187 164 201 135 118 122 118 106 89 82 79 79 79 74 66 57 49 42 35 22 266 232 208 191 210 203 202
323 331 336 349 1 3 345 6 339 319 312 269 238 229 215 211 196 192 205 180 146 161 152 128 113 103 95 86 80 70 58 47 37 30 27 39 49 344 204 177 177 248 218
305 316 326 360 18 355 359 359 358 345 309 275 258 243 226 209 212 209 181 211 195 166 176 164 152 137 122 108 94 86 72 57 44 29 13 12 20 74 150 187 186 212 206
272 304 329 1 327 2 13 357 46 8 5 333 282 243 235 228 218 212 212 220 189 192 200 173 165 155 136 116 98 83 71 60 40 27 23 7 346 12 302 190 210 205 179
284 277 349 40 7 6 18 12 20 57 22 340 307 280 247 241 235 235 230 215 205 211 206 192 188 174 143 112 101 80 58 42 39 17 4 355 345 322 345 201 188 192 216
296 276 346 43 23 22 15 7 360 6 31 358 309 297 244 240 237 240 226 225 224 225 210 210 206 153 137 123 104 81 61 34 28 1 350 350 327 309 284 198 198 188 216
281 275 316 27 33 25 37 30 31 3 36 18 350 304 335 166 248 266 262 255 245 227 251 249 223 158 156 150 110 63 33 23 12 350 353 345 328 320 276 223 207 211 200
269 268 280 323 61 4 24 11 17 19 7 47 20 343 333 349 322 95 42 300 294 268 257 236 215 152 145 93 65 32 30 340 347 343 335 344 323 305 309 241 226 209 206
270 261 231 221 195 62 62 37 30 12 343 25 64 53 31 333 332 320 91 57 84 23 355 288 151 124 114 98 119 196 162 254 346 339 339 338 320 316 282 244 235 228 208
277 248 234 208 210 192 142 84 69 37 33 9 24 349 3 238 177 298 322 6 155 29 20 25 105 111 98 118 221 175 146 126 359 330 351 336 338 333 284 249 226 228 218
277 254 263 250 226 227 211 165 107 92 61 50 12 17 350 342 343 321 312 326 335 57 52 76 101 103 125 120 145 93 81 61 11 16 360 347 346 339 313 180 195 224 217
278 267 270 273 240 231 225 186 155 129 99 31 15 13 312 339 309 314 305 351 322 72 94 85 100 104 90 70 61 47 43 33 12 14 359 350 347 352 11 32 43 16 289
271 294 291 287 238 231 230 210 190 215 115 77 60 329 315 30 277 311 330 319 334 130 178 112 100 109 102 81 65 56 86 24 6 0 1 0 349 350 357 40 42 358 360
254 260 288 275 231 238 240 214 245 239 219 204 146 238 294 56 276 101 331 313 333 331 36 129 123 95 84 95 62 12 3 23 356 10 358 351 338 341 339 353 356 322 344
256 265 276 268 246 238 227 212 215 227 228 210 172 264 282 80 307 83 345 300 271 301 319 48 61 131 120 98 69 343 10 293 9 350 351 335 329 327 332 320 315 306 308
252 259 265 272 257 244 238 214 213 224 238 204 188 227 231 112 25 358 345 328 268 248 118 104 80 127 98 112 320 334 327 330 6 12 343 340 331 326 313 302 293 284 272
241 247 255 253 252 247 239 232 214 222 239 231 208 219 214 144 97 6 17 21 16 102 46 130 115 126 91 78 345 341 339 5 2 8 348 344 336 322 305 297 284 272 250
236 234 238 244 248 239 234 235 240 210 216 242 215 211 186 178 119 56 50 74 75 90 116 130 125 172 132 244 282 306 352 20 34 2 350 340 338 324 316 297 280 262 232
242 236 225 228 233 236 227 230 233 225 201 229 205 201 185 175 135 114 90 96 86 98 105 116 129 123 114 153 341 349 359 17 32 358 342 329 337 321 305 286 269 243 215
241 237 231 225 229 226 226 220 220 219 205 204 190 173 167 117 116 92 105 93 110 108 124 127 130 137 118 167 356 351 320 1 81 12 322 324 322 313 315 321 300 199 182
251 241 236 233 233 238 220 204 216 216 195 190 182 169 141 133 123 103 91 51 46 118 116 132 140 104 118 118 85 342 353 32 27 6 325 311 342 352 353 351 332 163 155
260 248 241 244 255 254 244 201 201 214 193 186 176 170 155 139 139 115 99 98 75 65 56 125 119 113 118 93 24 7 38 65 60 312 326 322 354 13 6 8 70 127 137
251 242 190 95 63 8 318 280 208 201 193 185 182 169 156 155 149 134 116 102 92 82 96 114 105 91 103 111 73 66 64 85 120 342 357 355 349 8 18 31 58 94 111
162 180 203 150 113 123 51 264 211 185 182 176 176 170 159 157 156 143 129 118 107 99 81 75 78 75 76 55 57 131 79 128 88 17 21 330 347 332 28 29 49 70 78
220 196 273 328 186 276 98 153 268 224 175 168 173 166 163 159 162 162 137 137 128 128 128 127 120 113 115 99 48 62 56 63 76 82 21 355 351 358 35 21 36 57 77